Date String (YYYY-MM-DD hh:mm:ss) UTC,Instrument flags,Ambient pressure (hPa),Sample flow (lpm),Bypass flow (lpm),Sample temperature (°C),Ambient temperature (°C),ASC tube jacket temperature (°C),LED temperature (°C),Box temperature (°C),Sample RH (%),Span deviation,Mass concentration (μg/m³),Mass concentration (μg/m³),Mass concentration (μg/m³)
DateTimeUTC,F1_M11,P_M11,Q1_M11,Q2_M11,T1_M11,T2_M11,T3_M11,T4_M11,T5_M11,U1_M11,ZSPAN_M11,X0_M11,X2_M11,X1_M11
2022-09-13 20:00:00,,0824.4,4.99,0.00,29.6,27.2,00.0,38.3,31.3,14.0,0002.0,0034.30,0018.52,0017.23
2022-09-13 20:01:00,,0824.4,5.01,0.00,29.6,27.5,00.0,38.3,31.4,13.9,0001.6,0034.75,0018.44,0017.10
2022-09-13 20:02:00,,0824.4,4.99,0.00,29.7,27.8,00.0,38.3,31.4,14.0,0001.6,0034.28,0018.35,0017.00
2022-09-13 20:03:00,,0824.5,5.01,0.00,29.7,28.0,00.0,38.3,31.5,13.8,0001.1,0034.94,0018.21,0016.86
2022-09-13 20:04:00,,0824.4,5.00,0.00,29.7,28.2,00.0,38.3,31.6,13.7,0000.9,0034.64,0018.14,0016.81
2022-09-13 20:05:00,,0824.4,5.00,0.00,29.7,28.4,00.0,38.3,31.6,13.8,0000.9,0034.85,0018.04,0016.74
2022-09-13 20:06:00,,0824.3,5.00,0.00,29.8,28.6,00.0,38.4,31.7,14.1,0000.7,0034.05,0017.90,0016.60
2022-09-13 20:07:00,,0824.3,4.99,0.00,29.8,28.3,00.0,38.4,31.7,13.7,0000.5,0032.46,0017.80,0016.49
2022-09-13 20:08:00,,0824.3,5.00,0.00,29.8,26.9,00.0,38.4,31.6,14.3,0000.3,0031.49,0017.84,0016.48
2022-09-13 20:09:00,,0824.3,5.00,0.00,29.8,26.4,00.0,38.3,31.6,14.7,0000.5,0030.92,0017.98,0016.55
2022-09-13 20:10:00,,0824.4,5.00,0.00,29.7,26.7,00.0,38.3,31.5,14.4,0000.5,0030.54,0017.98,0016.56
2022-09-13 20:11:00,,0824.3,4.99,0.00,29.6,26.9,00.0,38.3,31.3,15.3,0001.0,0030.70,0018.11,0016.66
2022-09-13 20:12:00,,0824.3,5.01,0.00,29.6,27.3,00.0,38.3,31.3,14.7,0000.8,0030.11,0018.17,0016.76
2022-09-13 20:13:00,,0824.2,4.99,0.00,29.6,27.6,00.0,38.3,31.4,14.3,0000.4,0029.60,0018.31,0016.91
2022-09-13 20:14:00,,0824.2,5.00,0.00,29.6,27.9,00.0,38.3,31.4,14.5,0000.7,0030.70,0018.51,0017.07
2022-09-13 20:15:00,,0824.2,5.01,0.00,29.6,28.1,00.0,38.3,31.5,14.3,0001.3,0030.84,0018.69,0017.24
2022-09-13 20:16:00,,0824.2,5.00,0.00,29.7,28.3,00.0,38.3,31.5,14.2,0001.5,0030.24,0018.86,0017.39
2022-09-13 20:17:00,,0824.2,5.00,0.00,29.7,28.5,00.0,38.3,31.6,14.1,0001.3,0031.07,0019.02,0017.54
2022-09-13 20:18:00,,0824.2,5.00,0.00,29.8,28.6,00.0,38.3,31.7,14.4,0001.3,0031.93,0019.21,0017.71
2022-09-13 20:19:00,,0824.2,5.00,0.00,29.8,27.9,00.0,38.3,31.7,14.1,0001.2,0032.28,0019.27,0017.82
2022-09-13 20:20:00,,0824.2,5.01,0.00,29.8,26.7,00.0,38.3,31.6,14.4,0000.8,0032.76,0019.36,0017.90
2022-09-13 20:21:00,,0824.1,5.00,0.00,29.7,26.4,00.0,38.3,31.5,14.5,0000.5,0033.29,0019.41,0017.96
2022-09-13 20:22:00,,0824.1,4.99,0.00,29.7,26.7,00.0,38.3,31.4,14.2,-000.0,0033.90,0019.43,0017.93
2022-09-13 20:23:00,,0824.1,5.00,0.00,29.6,27.0,00.0,38.2,31.3,14.3,0000.1,0034.64,0019.44,0017.92
2022-09-13 20:24:00,,0824.1,5.01,0.00,29.6,27.3,00.0,38.2,31.3,13.9,0000.9,0034.65,0019.47,0017.89
2022-09-13 20:25:00,,0824.1,5.00,0.00,29.6,27.6,00.0,38.2,31.4,14.1,0001.2,0033.26,0019.42,0017.82
2022-09-13 20:26:00,,0824.1,4.99,0.00,29.6,27.9,00.0,38.3,31.5,14.5,0000.8,0032.74,0019.37,0017.74
2022-09-13 20:27:00,,0824.0,5.00,0.00,29.6,28.1,00.0,38.3,31.5,14.2,0000.5,0033.47,0019.32,0017.69
2022-09-13 20:28:00,,0824.1,4.99,0.00,29.7,28.3,00.0,38.3,31.6,13.8,0001.2,0034.05,0019.24,0017.59
2022-09-13 20:29:00,,0824.1,5.01,0.00,29.7,28.5,00.0,38.3,31.6,14.1,0001.4,0033.76,0019.18,0017.49
2022-09-13 20:30:00,,0824.0,5.00,0.00,29.8,28.5,00.0,38.3,31.7,13.8,0001.4,0033.93,0019.12,0017.40
2022-09-13 20:31:00,,0824.0,5.00,0.00,29.8,27.5,00.0,38.3,31.7,13.6,0001.5,0034.24,0018.89,0017.25
2022-09-13 20:32:00,,0824.0,5.00,0.00,29.7,26.4,00.0,38.3,31.5,14.1,0001.7,0034.35,0018.67,0017.08
2022-09-13 20:33:00,,0824.0,5.00,0.00,29.7,26.4,00.0,38.2,31.5,13.5,0002.0,0033.90,0018.44,0016.90
2022-09-13 20:34:00,,0824.0,5.00,0.00,29.6,26.7,00.0,38.2,31.3,13.8,0002.0,0032.79,0018.33,0016.78
2022-09-13 20:35:00,,0823.9,5.01,0.00,29.6,27.0,00.0,38.2,31.2,13.7,0001.8,0032.68,0018.08,0016.61
2022-09-13 20:36:00,,0824.0,5.00,0.00,29.6,27.3,00.0,38.2,31.3,13.9,0001.4,0033.22,0017.89,0016.46
2022-09-13 20:37:00,,0824.0,5.00,0.00,29.6,27.6,00.0,38.2,31.3,13.9,0001.2,0033.28,0017.74,0016.38
2022-09-13 20:38:00,,0823.9,4.99,0.00,29.6,27.9,00.0,38.2,31.4,13.9,0001.5,0033.48,0017.62,0016.27
2022-09-13 20:39:00,,0823.9,5.00,0.00,29.6,28.1,00.0,38.2,31.5,14.1,0001.2,0031.95,0017.50,0016.20
2022-09-13 20:40:00,,0823.9,5.00,0.00,29.6,28.3,00.0,38.2,31.5,13.8,0001.3,0031.97,0017.39,0016.10
2022-09-13 20:41:00,,0824.0,5.00,0.00,29.7,28.5,00.0,38.3,31.6,13.6,0001.5,0032.04,0017.24,0015.96
2022-09-13 20:42:00,,0823.9,5.00,0.00,29.7,28.6,00.0,38.3,31.7,13.7,0001.6,0030.90,0017.11,0015.79
2022-09-13 20:43:00,,0823.9,5.00,0.00,29.8,28.6,00.0,38.3,31.7,13.3,0001.7,0030.13,0016.95,0015.59
2022-09-13 20:44:00,,0823.8,5.01,0.00,29.8,27.4,00.0,38.3,31.7,13.9,0001.8,0029.57,0016.75,0015.41
2022-09-13 20:45:00,,0823.8,5.01,0.00,29.7,26.5,00.0,38.3,31.5,13.9,0001.9,0029.48,0016.55,0015.21
2022-09-13 20:46:00,,0823.7,4.99,0.00,29.7,26.6,00.0,38.2,31.5,13.5,0001.8,0029.35,0016.45,0015.08
2022-09-13 20:47:00,,0823.7,4.99,0.00,29.6,26.8,00.0,38.2,31.3,13.4,0001.9,0028.63,0016.35,0014.97
2022-09-13 20:48:00,,0823.8,5.00,0.00,29.6,27.2,00.0,38.2,31.3,13.7,0002.3,0028.99,0016.19,0014.79
2022-09-13 20:49:00,,0823.8,5.01,0.00,29.6,27.5,00.0,38.2,31.3,13.9,0002.3,0027.87,0015.98,0014.58
2022-09-13 20:50:00,,0823.8,5.00,0.00,29.6,27.8,00.0,38.2,31.4,14.5,0002.2,0028.37,0015.86,0014.43
2022-09-13 20:51:00,,0823.7,4.99,0.00,29.6,28.0,00.0,38.3,31.4,14.2,0002.0,0028.48,0015.70,0014.32
2022-09-13 20:52:00,,0823.7,5.01,0.00,29.6,28.2,00.0,38.3,31.5,15.4,0002.0,0027.38,0015.59,0014.28
2022-09-13 20:53:00,,0823.8,5.01,0.00,29.7,28.4,00.0,38.3,31.6,15.4,0002.1,0027.14,0015.54,0014.30
2022-09-13 20:54:00,,0823.7,5.00,0.00,29.7,28.6,00.0,38.3,31.7,15.8,0002.4,0026.59,0015.52,0014.32
2022-09-13 20:55:00,,0823.7,5.00,0.00,29.8,28.7,00.0,38.3,31.7,15.5,0002.3,0026.03,0015.52,0014.34
2022-09-13 20:56:00,,0823.7,4.99,0.00,29.8,28.4,00.0,38.4,31.7,15.8,0002.1,0025.53,0015.50,0014.37
2022-09-13 20:57:00,,0823.7,5.01,0.00,29.8,27.1,00.0,38.4,31.7,15.5,0002.2,0025.64,0015.45,0014.37
2022-09-13 20:58:00,,0823.7,5.00,0.00,29.7,26.4,00.0,38.3,31.6,15.4,0002.4,0025.67,0015.44,0014.39
2022-09-13 20:59:00,,0823.7,5.00,0.00,29.7,26.6,00.0,38.3,31.5,15.3,0001.9,0025.16,0015.45,0014.41
